Regional Weather Roundup
Issued by NWS Cleveland, OH

Home | Current Version | Previous Version | Text Only | Print | Product List | Glossary Off
Versions: 1 2 3 4 5 6 7 8 9 10 11 12 13 14 15 16 17 18 19 20 21 22 23 24 25 26 27 28 29 30 31 32 33 34 35 36 37 38 39 40 41 42 43 44 45 46 47 48 49 50

000
ASUS41 KCLE 220700
RWRCLE
OHIO REGIONAL WEATHER ROUNDUP
NATIONAL WEATHER SERVICE WILMINGTON, OH
300 AM EDT TUE MAY 22 2018

NOTE: "FAIR" INDICATES FEW OR NO CLOUDS BELOW 12,000 FEET WITH NO
SIGNIFICANT WEATHER AND/OR OBSTRUCTIONS TO VISIBILITY.

OHZ001>008-015>018-024>027-034-035-043-044-220800-
   NORTHWEST OHIO

CITY           SKY/WX    TMP DP  RH WIND       PRES   REMARKS
DEFIANCE       CLOUDY    56  53  90 CALM      29.99F
FINDLAY        MOCLDY    65  63  93 S6        29.98F
TOLEDO EXPRESS CLOUDY    56  56 100 CALM      29.98F
TOLEDO EXEC    CLOUDY    57  53  86 N5        30.00F
LIMA           FAIR      65  64  97 S7        30.00F
$$

OHZ009>014-019>023-028>033-038-089-220800-
   NORTHEAST OHIO

CITY           SKY/WX    TMP DP  RH WIND       PRES   REMARKS
CLE-HOPKINS    LGT RAIN  66  64  93 S9        30.03F
CLE-LAKEFRONT  LGT RAIN  66  62  87 S14       30.00F
CUY CO. ARPT   NOT AVBL
LORAIN-ELYRIA  CLOUDY    64  59  83 S10       30.01F
ASHTABULA      CLOUDY    63  62  97 S10       30.03F
AKRON-CANTON   LGT RAIN  65  62  90 S6        30.05F
WOOSTER        NOT AVBL
MANSFIELD      CLOUDY    64  64 100 SE12      30.02F
YOUNGSTOWN     LGT RAIN  63  62  97 S6        30.05F
$$

OHZ042-051>053-060>062-070>072-077>081-220800-
  SOUTHWEST OHIO

CITY           SKY/WX    TMP DP  RH WIND       PRES   REMARKS
CINC-COVINGTON CLOUDY    67  66  97 S6        30.02F
CINC-LUNKEN    MOCLDY    68  67  96 CALM      30.02F
HAMILTON       CLOUDY    69  68  96 CALM      30.02F
DAYTON         NOT AVBL
WRIGHT-PAT AFB NOT AVBL
DAYTON GENERAL HVY RAIN  68  64  87 S9        30.02F
WILMINGTON     RAIN      66  66 100 S7        30.03F FOG
$$

OHZ036-037-039>041-045>050-054>059-063>069-073>076-082>088-220800-
  CENTRAL AND SOUTHEAST OHIO

CITY           SKY/WX    TMP DP  RH WIND       PRES   REMARKS
COLUMBUS       CLOUDY    66  64  93 SE6       30.02F
OSU AIRPORT    CLOUDY    66  65  96 SE7       30.02F
BOLTON FIELD   NOT AVBL
RICKENBACK AFB NOT AVBL
NEWARK         LGT RAIN  65  64  97 SE3       30.03F
MARION         FAIR      65  63  93 S9        30.01F
LANCASTER      LGT RAIN  65  65 100 SE6       30.05F
ZANESVILLE     LGT RAIN  65  63  93 SE6       30.06F
NEW PHILLY     LGT RAIN  65  64  97 S3        30.07F
$$




USA.gov is the U.S. government's official web portal to all federal, state and local government web resources and services.